(176181) = 2001 NF5 = 2006 RX21

Discovered at Palomar on 2001-07-13 by NEAT.

Orbit

Orbit type: Main Belt

Note: WebGL enabled browser required.

epoch2023-02-25.0
epoch JD2460000.5
perihelion date2020-10-17.09513
perihelion JD2459139.59513
argument of perihelion (°)51.64480
ascending node (°)310.33466
inclination (°)19.98149
eccentricity0.2729337
perihelion distance (AU)2.0383361
Tisserand w.r.t. Jupiter3.2
ΔV w.r.t. Earth (km/sec)10.8
semimajor axis (AU)2.8035080
mean anomaly (°)180.76165
mean daily motion (°/day)0.20996710
aphelion distance (AU)3.569
period (years)4.69
P-vector [x]0.96341987
P-vector [y]-0.10293256
P-vector [z]0.24744098
Q-vector [x]-0.06301549
Q-vector [y]0.81040461
Q-vector [z]0.58247182
absolute magnitude15.77
phase slope0.15
uncertainty0
referenceMPEC 2023-F215
observations used703
oppositions12
arc length (days)8772
first opposition used1999
last opposition used2023
residual rms (arc-secs)0.69
perturbers coarse indicatorM-v
perturbers precise indicator003Ek
first observation date used1999-03-21.0
last observation date used2023-03-27.0
computer nameMPCLINUX
Minimum Orbit Intersection Distances (in AU)
for orbit epoch: 2459200.5, reference: E2021-B55
Mercury1.69526
Venus1.36209
Earth1.08383
Mars0.76318
Jupiter2.07554
Saturn5.96575
Uranus14.9218
Neptune27.1256

Observations

723 total observations over interval: 1999 03 21.207220 – 2023 03 27.418792
These data are available for download (format description).

Date (UT) J2000 RA J2000 Dec Magn Location Ref
1999 03 21.207220 09 50 43.468 -00 43 38.21 21.08 V 645 – Apache Point-Sloan Digital Sky Survey MPS 182409
1999 03 21.210692 09 50 43.312 -00 43 37.73 22.05   645 – Apache Point-Sloan Digital Sky Survey MPS 182409
2001 07 13.30322 20 36 50.41 -26 24 21.7 19.1   644 – Palomar Mountain/NEAT MPS 32414
2001 07 13.31392 20 36 49.65 -26 24 18.0 19.2   644 – Palomar Mountain/NEAT MPS 32414
2001 07 13.32463 20 36 48.91 -26 24 14.7 18.9   644 – Palomar Mountain/NEAT MPS 32414
2001 07 14.40651 20 35 36.32 -26 18 14.6 19.5   644 – Palomar Mountain/NEAT MPS 32414
2001 07 14.41699 20 35 35.58 -26 18 11.0 19.8   644 – Palomar Mountain/NEAT MPS 32414
2001 07 14.42856 20 35 34.72 -26 18 06.4 19.9   644 – Palomar Mountain/NEAT MPS 32414
2001 07 20.26668 20 28 42.46 -25 43 11.9 18.4   644 – Palomar Mountain/NEAT MPS 32414
2001 07 20.27733 20 28 41.67 -25 43 08.0 18.7   644 – Palomar Mountain/NEAT MPS 32414
2001 07 20.28793 20 28 40.87 -25 43 03.7 18.8   644 – Palomar Mountain/NEAT MPS 32414
2001 08 06.34856 20 07 34.62 -23 35 02.1 20.3   608 – Haleakala-AMOS MPS 32846
2001 08 06.35912 20 07 33.82 -23 34 56.9 19.9   608 – Haleakala-AMOS MPS 32846
2001 08 06.36973 20 07 33.00 -23 34 51.1 20.0   608 – Haleakala-AMOS MPS 32846
2001 08 11.31467 20 01 57.99 -22 51 30.2 19.5   608 – Haleakala-AMOS MPS 32846
2001 08 11.32548 20 01 57.28 -22 51 25.3 19.9   608 – Haleakala-AMOS MPS 32846
2001 08 11.33581 20 01 56.56 -22 51 19.6 20.2   608 – Haleakala-AMOS MPS 32846
2001 08 16.21134 19 56 58.72 -22 06 45.7 18.4   704 – Lincoln Laboratory ETS, New Mexico MPS 33340
2001 08 16.22393 19 56 57.94 -22 06 37.9 19.2   704 – Lincoln Laboratory ETS, New Mexico MPS 33340
2001 08 16.23654 19 56 57.21 -22 06 31.4 18.7   704 – Lincoln Laboratory ETS, New Mexico MPS 33340
2001 08 16.24905 19 56 56.43 -22 06 23.8 18.8   704 – Lincoln Laboratory ETS, New Mexico MPS 33340
2001 08 16.26148 19 56 55.70 -22 06 17.6 18.8   704 – Lincoln Laboratory ETS, New Mexico MPS 33340
2001 08 19.20830 19 54 15.26 -21 38 41.5 18.8   704 – Lincoln Laboratory ETS, New Mexico MPS 33340
2001 08 19.22093 19 54 14.54 -21 38 34.9 18.9   704 – Lincoln Laboratory ETS, New Mexico MPS 33340
2001 08 19.23352 19 54 13.89 -21 38 27.1 18.6   704 – Lincoln Laboratory ETS, New Mexico MPS 33340
2001 08 19.24611 19 54 13.22 -21 38 20.6 18.7   704 – Lincoln Laboratory ETS, New Mexico MPS 33340
2001 08 19.25875 19 54 12.57 -21 38 13.4 19.3   704 – Lincoln Laboratory ETS, New Mexico MPS 33340
2006 08 10.34824 23 44 22.78 +18 15 52.7 17.9 R 644 – Palomar Mountain/NEAT MPS 182409
2006 08 10.36850 23 44 22.28 +18 16 14.5 18.7 R 644 – Palomar Mountain/NEAT MPS 182409
2006 08 10.38876 23 44 21.78 +18 16 35.2 18.9 R 644 – Palomar Mountain/NEAT MPS 182409
2006 08 24.30625 23 36 00.97 +21 50 19.3 18.8   704 – Lincoln Laboratory ETS, New Mexico MPS 213042
2006 08 24.31723 23 36 00.74 +21 50 25.9 19.7   704 – Lincoln Laboratory ETS, New Mexico MPS 213042
2006 08 24.32797 23 36 00.07 +21 50 35.2 19.2   704 – Lincoln Laboratory ETS, New Mexico MPS 213042
2006 08 24.34964 23 35 58.93 +21 50 53.1 19.3   704 – Lincoln Laboratory ETS, New Mexico MPS 213042
2006 09 15.42045 23 12 53.24 +25 26 09.9 18.3 V 703 – Catalina Sky Survey MPS 179502
2006 09 15.42532 23 12 52.92 +25 26 10.8 18.1 V 703 – Catalina Sky Survey MPS 179502
2006 09 15.43017 23 12 52.56 +25 26 12.5 18.2 V 703 – Catalina Sky Survey MPS 179502
2006 09 15.43502 23 12 52.20 +25 26 14.2 18.1 V 703 – Catalina Sky Survey MPS 179502
2006 09 16.24539 23 11 56.47 +25 30 30.0 17.7 V 703 – Catalina Sky Survey MPS 179502
2006 09 16.25185 23 11 55.96 +25 30 31.3 17.8 V 703 – Catalina Sky Survey MPS 179502
2006 09 16.25830 23 11 55.53 +25 30 33.2 18.1 V 703 – Catalina Sky Survey MPS 179502
2006 09 16.26476 23 11 55.03 +25 30 34.9 18.4 V 703 – Catalina Sky Survey MPS 179502
2006 09 18.17067 23 09 43.59 +25 39 27.3 17.9 V 703 – Catalina Sky Survey MPS 179097
2006 09 18.17909 23 09 43.05 +25 39 29.8 17.8 V 703 – Catalina Sky Survey MPS 179097
2006 09 18.18748 23 09 42.44 +25 39 32.0 18.0 V 703 – Catalina Sky Survey MPS 179097
2006 09 18.19584 23 09 41.86 +25 39 34.3 17.9 V 703 – Catalina Sky Survey MPS 179097
2006 09 20.22786 23 07 23.04 +25 47 24.4 18.1   704 – Lincoln Laboratory ETS, New Mexico MPS 179097
2006 09 20.24089 23 07 22.11 +25 47 27.1 18.3   704 – Lincoln Laboratory ETS, New Mexico MPS 179097
2006 09 20.25315 23 07 21.27 +25 47 29.9 18.4   704 – Lincoln Laboratory ETS, New Mexico MPS 179097
2006 09 20.27774 23 07 19.57 +25 47 35.0 18.4   704 – Lincoln Laboratory ETS, New Mexico MPS 179097
2006 09 22.23474 23 05 08.87 +25 53 29.5 18.0 R 699 – Lowell Observatory-LONEOS MPS 180780
2006 09 22.25762 23 05 07.14 +25 53 33.4   699 – Lowell Observatory-LONEOS MPS 180780
2006 09 22.28053 23 05 05.59 +25 53 36.7   699 – Lowell Observatory-LONEOS MPS 180780
2006 09 22.30340 23 05 03.99 +25 53 40.5   699 – Lowell Observatory-LONEOS MPS 180780
2006 10 01.21830 22 56 01.66 +26 02 37.8 17.7   704 – Lincoln Laboratory ETS, New Mexico MPS 182455
2006 10 01.23080 22 56 00.96 +26 02 37.4 18.0   704 – Lincoln Laboratory ETS, New Mexico MPS 182455
2006 10 01.25674 22 55 59.58 +26 02 36.9 18.7   704 – Lincoln Laboratory ETS, New Mexico MPS 182455
2006 10 01.26949 22 55 58.75 +26 02 36.3 18.2   704 – Lincoln Laboratory ETS, New Mexico MPS 182455
2006 10 18.79113 22 45 18.06 +25 18 39.5 17.9 R 106 – Crni Vrh MPS 182744
2006 10 18.80012 22 45 17.90 +25 18 37.4 17.9 R 106 – Crni Vrh MPS 182744
2006 10 18.80911 22 45 17.69 +25 18 34.6 17.9 R 106 – Crni Vrh MPS 182744
2006 10 18.81809 22 45 17.55 +25 18 32.0 17.6 R 106 – Crni Vrh MPS 182744
2006 10 20.18067 22 44 56.86 +25 13 11.0 18.5   703 – Catalina Sky Survey MPS 183899
2006 10 20.19034 22 44 56.68 +25 13 08.8 18.4   703 – Catalina Sky Survey MPS 183899
2006 10 20.20001 22 44 56.50 +25 13 06.4 18.4   703 – Catalina Sky Survey MPS 183899
2006 10 20.20971 22 44 56.40 +25 13 04.2 18.6   703 – Catalina Sky Survey MPS 183899
2006 10 21.19131 22 44 44.48 +25 09 06.4 18.5   704 – Lincoln Laboratory ETS, New Mexico MPS 183899
2006 10 21.20343 22 44 44.16 +25 09 04.2 18.9   704 – Lincoln Laboratory ETS, New Mexico MPS 183899
2006 10 21.21509 22 44 43.94 +25 09 01.3 18.4   704 – Lincoln Laboratory ETS, New Mexico MPS 183899
2006 10 21.23851 22 44 43.68 +25 08 51.5 18.8   704 – Lincoln Laboratory ETS, New Mexico MPS 183899
2006 11 16.11885 22 52 53.43 +23 30 18.7 18.7 V 703 – Catalina Sky Survey MPS 186779
2006 11 16.13085 22 52 53.94 +23 30 16.5 18.9 V 703 – Catalina Sky Survey MPS 186779
2006 11 16.14277 22 52 54.44 +23 30 14.3 18.9 V 703 – Catalina Sky Survey MPS 186779
2006 11 16.15503 22 52 54.98 +23 30 12.4 18.6 V 703 – Catalina Sky Survey MPS 186779
2006 11 22.13807 22 58 04.11 +23 15 48.0 19.3 V 703 – Catalina Sky Survey MPS 188374
2006 11 22.14616 22 58 04.62 +23 15 47.6 18.9 V 703 – Catalina Sky Survey MPS 188374
2006 11 22.15424 22 58 04.94 +23 15 44.6 18.6 V 703 – Catalina Sky Survey MPS 188374
2006 11 22.16233 22 58 05.48 +23 15 44.8 18.6 V 703 – Catalina Sky Survey MPS 188374
2008 01 11.38757 09 23 12.86 +15 43 51.1 20.2 V 691 – Steward Observatory, Kitt Peak-Spacewatch MPS 233306
2008 01 11.40521 09 23 11.88 +15 43 50.0 20.0 V 691 – Steward Observatory, Kitt Peak-Spacewatch MPS 233306
2008 01 11.42284 09 23 10.98 +15 43 49.4 20.2 V 691 – Steward Observatory, Kitt Peak-Spacewatch MPS 233306
2008 01 15.42171 09 19 33.32 +15 40 50.7 20.5 V 691 – Steward Observatory, Kitt Peak-Spacewatch MPS 234121
2008 01 15.44006 09 19 32.27 +15 40 49.6 20.7 V 691 – Steward Observatory, Kitt Peak-Spacewatch MPS 234121
2008 01 15.45817 09 19 31.22 +15 40 48.9 20.5 V 691 – Steward Observatory, Kitt Peak-Spacewatch MPS 234121
2008 01 30.22330 09 04 30.84 +15 33 37.3 20.3 V 691 – Steward Observatory, Kitt Peak-Spacewatch MPS 235274
2008 01 30.24167 09 04 29.63 +15 33 37.0 20.4 V 691 – Steward Observatory, Kitt Peak-Spacewatch MPS 235274
2008 01 30.25979 09 04 28.40 +15 33 37.2 19.7 V 691 – Steward Observatory, Kitt Peak-Spacewatch MPS 235274
2008 01 30.30589 09 04 25.50 +15 33 35.4 19.8 V G96 – Mt. Lemmon Survey MPS 235274
2008 01 30.31301 09 04 25.03 +15 33 36.5 19.8 V 703 – Catalina Sky Survey MPS 235274
2008 01 30.31352 09 04 24.99 +15 33 35.2 19.7 V G96 – Mt. Lemmon Survey MPS 235274
2008 01 30.32044 09 04 24.49 +15 33 35.7 20.4 V 703 – Catalina Sky Survey MPS 235274
2008 01 30.32118 09 04 24.49 +15 33 34.9 19.7 V G96 – Mt. Lemmon Survey MPS 235274
2008 01 30.32788 09 04 24.06 +15 33 35.7 20.0 V 703 – Catalina Sky Survey MPS 235274
